• In Hungary
  • List of Countries
  • For 7 days
  • Water Temperature
  • Satellite Maps
  • Weather Map
  • News
  • Weather Widgets
  • user-avatar
    Login

    Hourly Weather Leinfelden-Echterdingen

    Today, 20 November, Monday

    Time Temperature Precipitation Wind Pressure Humidity
    00:00 -1°C° 0 mm 4 mps 729 mmHg 88%
    01:00 0°C° 0 mm 3 mps 729 mmHg 89%
    02:00 0°C° 0 mm 3 mps 729 mmHg 90%
    03:00 -1°C° 0 mm 3 mps 729 mmHg 91%
    04:00 -1°C° 0 mm 3 mps 729 mmHg 92%
    05:00 -1°C° 0 mm 2 mps 729 mmHg 92%
    06:00 -2°C° 0 mm 2 mps 729 mmHg 92%
    07:00 -2°C° 0 mm 2 mps 729 mmHg 92%
    08:00 -1°C° 0 mm 2 mps 729 mmHg 88%
    09:00 +1°C° 0 mm 2 mps 729 mmHg 83%
    10:00 +2°C° 0 mm 2 mps 729 mmHg 78%
    11:00 +2°C° 0 mm 3 mps 729 mmHg 76%
    12:00 +3°C° 0 mm 3 mps 728 mmHg 73%
    13:00 +3°C° 0 mm 3 mps 728 mmHg 70%
    14:00 +3°C° 0 mm 3 mps 728 mmHg 71%
    15:00 +3°C° 0 mm 3 mps 727 mmHg 73%
    16:00 +3°C° 0 mm 3 mps 727 mmHg 74%
    17:00 +3°C° 0.1 mm 3 mps 726 mmHg 74%
    18:00 +3°C° 0.1 mm 4 mps 726 mmHg 75%
    19:00 +3°C° 0.1 mm 4 mps 726 mmHg 76%
    20:00 +2°C° 0.1 mm 5 mps 726 mmHg 79%
    21:00 +3°C° 0.1 mm 5 mps 726 mmHg 81%
    22:00 +3°C° 0.1 mm 6 mps 726 mmHg 84%
    23:00 +3°C° 0.3 mm 6 mps 725 mmHg 85%

    Tomorrow, 21 November, Tuesday

    Time Temperature Precipitation Wind Pressure Humidity
    00:00 +3°C° 0.3 mm 5 mps 725 mmHg 86%
    01:00 +3°C° 0.3 mm 5 mps 725 mmHg 86%
    02:00 +3°C° 1 mm 5 mps 725 mmHg 87%
    03:00 +3°C° 1 mm 5 mps 725 mmHg 88%
    04:00 +3°C° 1 mm 5 mps 725 mmHg 89%
    05:00 +5°C° 0.1 mm 5 mps 725 mmHg 89%
    06:00 +5°C° 0.1 mm 5 mps 725 mmHg 89%
    07:00 +5°C° 0.1 mm 5 mps 725 mmHg 90%
    08:00 +5°C° 1 mm 5 mps 725 mmHg 89%
    09:00 +5°C° 1 mm 5 mps 725 mmHg 88%
    10:00 +5°C° 1 mm 5 mps 725 mmHg 87%
    11:00 +6°C° 0.4 mm 5 mps 725 mmHg 84%
    12:00 +7°C° 0.4 mm 4 mps 725 mmHg 81%
    13:00 +8°C° 0.4 mm 4 mps 725 mmHg 78%
    14:00 +7°C° 0 mm 4 mps 725 mmHg 79%
    15:00 +8°C° 0 mm 3 mps 725 mmHg 81%
    16:00 +8°C° 0 mm 3 mps 725 mmHg 82%
    17:00 +7°C° 0 mm 3 mps 725 mmHg 82%
    18:00 +7°C° 0 mm 3 mps 725 mmHg 83%
    19:00 +5°C° 0 mm 3 mps 725 mmHg 83%
    20:00 +5°C° 0 mm 3 mps 725 mmHg 82%
    21:00 +5°C° 0 mm 3 mps 724 mmHg 81%
    22:00 +5°C° 0 mm 3 mps 724 mmHg 80%
    23:00 +4°C° 0 mm 3 mps 724 mmHg 80%

    Day after tomorrow, 22 November, Wednesday

    Time Temperature Precipitation Wind Pressure Humidity
    00:00 +4°C° 0 mm 3 mps 724 mmHg 80%
    01:00 +4°C° 0 mm 3 mps 724 mmHg 80%
    02:00 +4°C° 0 mm 3 mps 724 mmHg 80%
    03:00 +4°C° 0 mm 3 mps 724 mmHg 80%
    04:00 +4°C° 0 mm 3 mps 723 mmHg 80%
    05:00 +4°C° 0 mm 3 mps 723 mmHg 80%
    06:00 +4°C° 0 mm 2 mps 723 mmHg 80%
    07:00 +4°C° 0 mm 2 mps 723 mmHg 80%
    08:00 +5°C° 0 mm 2 mps 723 mmHg 77%
    09:00 +7°C° 0 mm 3 mps 723 mmHg 73%
    10:00 +8°C° 0 mm 3 mps 724 mmHg 70%
    11:00 +9°C° 0 mm 3 mps 723 mmHg 67%
    12:00 +11°C° 0 mm 3 mps 723 mmHg 64%
    13:00 +13°C° 0 mm 2 mps 723 mmHg 60%
    14:00 +12°C° 0 mm 2 mps 723 mmHg 64%
    15:00 +10°C° 0 mm 2 mps 722 mmHg 68%
    16:00 +9°C° 0 mm 2 mps 722 mmHg 72%
    17:00 +8°C° 0 mm 2 mps 722 mmHg 72%
    18:00 +7°C° 0 mm 2 mps 722 mmHg 71%
    19:00 +6°C° 0 mm 2 mps 722 mmHg 70%
    20:00 +6°C° 0 mm 2 mps 722 mmHg 69%
    21:00 +6°C° 0 mm 2 mps 722 mmHg 68%
    22:00 +6°C° 0 mm 2 mps 722 mmHg 67%
    23:00 +5°C° 0 mm 3 mps 722 mmHg 68%

    23 November, Thursday

    Time Temperature Precipitation Wind Pressure Humidity
    00:00 +5°C° 0 mm 3 mps 722 mmHg 68%
    01:00 +5°C° 0 mm 3 mps 722 mmHg 69%
    02:00 +5°C° 0 mm 3 mps 722 mmHg 68%
    03:00 +5°C° 0 mm 3 mps 722 mmHg 68%
    04:00 +5°C° 0 mm 3 mps 722 mmHg 67%
    05:00 +5°C° 0 mm 3 mps 723 mmHg 68%
    06:00 +7°C° 0 mm 3 mps 723 mmHg 68%
    07:00 +6°C° 0 mm 4 mps 723 mmHg 68%
    08:00 +7°C° 0 mm 4 mps 724 mmHg 67%
    09:00 +8°C° 0 mm 4 mps 724 mmHg 65%
    10:00 +10°C° 0 mm 4 mps 725 mmHg 64%
    11:00 +11°C° 0 mm 4 mps 725 mmHg 64%
    12:00 +12°C° 0 mm 4 mps 725 mmHg 63%
    13:00 +13°C° 0 mm 4 mps 725 mmHg 63%
    14:00 +12°C° 0 mm 4 mps 725 mmHg 67%
    15:00 +12°C° 0 mm 3 mps 725 mmHg 72%
    16:00 +11°C° 0 mm 3 mps 725 mmHg 76%
    17:00 +10°C° 0 mm 3 mps 726 mmHg 78%
    18:00 +9°C° 0 mm 3 mps 726 mmHg 81%
    19:00 +8°C° 0 mm 3 mps 727 mmHg 83%
    20:00 +8°C° 0 mm 2 mps 727 mmHg 83%
    21:00 +8°C° 0 mm 2 mps 727 mmHg 84%
    22:00 +8°C° 0 mm 2 mps 727 mmHg 84%
    23:00 +7°C° 0 mm 2 mps 727 mmHg 83%

    24 November, Friday

    Time Temperature Precipitation Wind Pressure Humidity
    00:00 +7°C° 0 mm 2 mps 727 mmHg 82%
    01:00 +7°C° 0 mm 2 mps 727 mmHg 81%
    02:00 +7°C° 0 mm 2 mps 727 mmHg 79%
    03:00 +7°C° 0 mm 2 mps 727 mmHg 78%
    04:00 +7°C° 0 mm 2 mps 727 mmHg 77%
    05:00 +7°C° 0 mm 2 mps 727 mmHg 75%
    06:00 +7°C° 0 mm 2 mps 727 mmHg 74%
    07:00 +7°C° 0 mm 2 mps 727 mmHg 73%
    08:00 +8°C° 0 mm 2 mps 727 mmHg 69%
    09:00 +9°C° 0 mm 2 mps 727 mmHg 65%
    10:00 +10°C° 0 mm 3 mps 727 mmHg 62%
    11:00 +11°C° 0 mm 3 mps 726 mmHg 60%
    12:00 +13°C° 0 mm 2 mps 726 mmHg 58%
    13:00 +14°C° 0 mm 2 mps 726 mmHg 56%
    14:00 +13°C° 0 mm 2 mps 725 mmHg 59%
    15:00 +13°C° 0 mm 2 mps 725 mmHg 62%
    16:00 +12°C° 0 mm 2 mps 725 mmHg 65%
    17:00 +10°C° 0 mm 2 mps 725 mmHg 65%
    18:00 +9°C° 0 mm 2 mps 725 mmHg 65%
    19:00 +9°C° 0 mm 2 mps 725 mmHg 65%
    20:00 +9°C° 0 mm 2 mps 725 mmHg 65%
    21:00 +8°C° 0 mm 2 mps 725 mmHg 65%
    22:00 +8°C° 0 mm 2 mps 725 mmHg 65%
    23:00 +8°C° 0 mm 2 mps 725 mmHg 65%

    25 November, Saturday

    Time Temperature Precipitation Wind Pressure Humidity
    00:00 +8°C° 0 mm 2 mps 725 mmHg 65%
    01:00 +8°C° 0 mm 2 mps 724 mmHg 66%
    02:00 +8°C° 0 mm 2 mps 724 mmHg 65%
    03:00 +8°C° 0 mm 2 mps 724 mmHg 65%
    04:00 +9°C° 0 mm 2 mps 724 mmHg 64%
    05:00 +8°C° 0 mm 2 mps 724 mmHg 65%
    06:00 +8°C° 0 mm 2 mps 723 mmHg 65%
    07:00 +8°C° 0 mm 2 mps 723 mmHg 66%
    08:00 +9°C° 0 mm 2 mps 723 mmHg 64%
    09:00 +10°C° 0 mm 2 mps 723 mmHg 63%
    10:00 +10°C° 0 mm 2 mps 723 mmHg 61%
    11:00 +11°C° 0 mm 3 mps 722 mmHg 58%
    12:00 +13°C° 0 mm 3 mps 722 mmHg 54%
    13:00 +14°C° 0 mm 4 mps 722 mmHg 51%
    14:00 +13°C° 0 mm 4 mps 722 mmHg 55%
    15:00 +12°C° 0 mm 4 mps 723 mmHg 58%
    16:00 +11°C° 0 mm 4 mps 723 mmHg 62%
    17:00 +11°C° 0.1 mm 4 mps 723 mmHg 67%
    18:00 +10°C° 0.1 mm 4 mps 724 mmHg 73%
    19:00 +10°C° 0.1 mm 4 mps 724 mmHg 78%
    20:00 +8°C° 0.1 mm 4 mps 724 mmHg 80%
    21:00 +8°C° 0.1 mm 4 mps 725 mmHg 82%
    22:00 +8°C° 0.1 mm 3 mps 725 mmHg 83%
    23:00 +8°C° 0.2 mm 3 mps 725 mmHg 84%
    Show more